PBO Station Position Time Series. Reference Frame : NAM14
Format Version,1.1.0
4-character ID,P076
Station name,DryMountaiNV2006
Begin Date, 2006-10-19
End Date, 2019-10-07
Release Date, 2019-10-08
Reference position, 39.5360626118 North Latitude, -115.5125991346 East Longitude, 2006.04299 meters elevation,
Date, North (mm), East (mm), Vertical (mm), North Std. Deviation (mm), East Std. Deviation (mm),              Vertical Std. Deviation (mm), Quality,
2006-10-19,0.00, 0.00, 0.00, 2.25, 1.80, 8.21, repro,
2006-10-20,-1.95, 0.93, 0.41, 2.27, 1.82, 8.55, repro,
2006-10-21,0.40, -0.38, -6.41, 2.27, 1.85, 8.25, repro,
2006-10-22,-0.51, -0.13, -7.40, 2.07, 1.74, 7.61, repro,
2006-10-23,-0.16, -0.10, -4.61, 2.22, 1.79, 8.03, repro,
2006-10-24,-1.12, 1.58, 1.26, 2.21, 1.76, 7.89, repro,
2006-10-25,-1.61, -0.53, 0.16, 2.16, 1.76, 7.73, repro,
2006-10-26,1.40, -0.12, -0.73, 2.12, 1.80, 7.79, repro,
2006-10-27,0.35, 0.92, -9.48, 2.09, 1.77, 7.72, repro,
2006-10-28,-1.35, 0.14, -6.78, 2.26, 1.82, 8.25, repro,
2006-10-29,-1.05, 0.22, 2.29, 2.07, 1.71, 7.48, repro,
2006-10-30,-0.77, 0.35, 3.91, 2.00, 1.64, 7.26, repro,
2006-10-31,-0.32, -0.12, 1.06, 2.07, 1.72, 7.55, repro,
2006-11-01,0.40, -0.05, -8.12, 2.23, 1.86, 8.27, repro,
2006-11-02,-1.52, 1.86, -3.76, 2.05, 1.68, 7.42, repro,
2006-11-03,0.41, 2.14, 2.39, 2.09, 1.71, 7.55, repro,
2006-11-04,-0.94, 1.14, -0.04, 2.10, 1.70, 7.49, repro,
2006-11-05,-0.21, 0.35, -3.21, 2.16, 1.75, 7.71, repro,
2006-11-06,0.46, 0.18, -8.28, 2.04, 1.68, 7.41, repro,
2006-11-07,0.15, 0.53, -0.95, 2.17, 1.80, 7.90, repro,
2006-11-08,0.11, 0.93, 1.48, 2.17, 1.75, 7.77, repro,
2006-11-09,-0.24, 2.30, 3.82, 2.18, 1.77, 7.81, repro,
2006-11-10,-1.14, 1.01, -1.28, 2.09, 1.65, 7.42, repro,
2006-11-11,-0.21, 1.17, -5.09, 2.15, 1.74, 7.73, repro,
2006-11-12,-0.95, -0.53, -2.75, 2.16, 1.77, 7.79, repro,
2006-11-13,-1.14, 2.77, 3.52, 2.14, 1.71, 7.63, repro,
2006-11-14,0.46, 0.05, -2.36, 2.04, 1.64, 7.35, repro,
2006-11-15,-0.51, 1.15, -2.86, 2.01, 1.61, 7.21, repro,
2006-11-16,-0.16, 3.09, 2.38, 2.01, 1.63, 7.24, repro,
2006-11-17,-0.30, 0.84, 0.78, 1.99, 1.62, 7.16, repro,
2006-11-18,-0.32, 1.31, -7.02, 2.02, 1.63, 7.22, repro,
2006-11-19,-0.19, 1.53, -5.89, 2.05, 1.68, 7.37, repro,
2006-11-20,-1.37, 1.30, -2.92, 2.00, 1.61, 7.10, repro,
2006-11-21,-0.37, 1.15, -0.65, 2.01, 1.62, 7.21, repro,
2006-11-22,-0.30, 1.23, -0.86, 2.00, 1.63, 7.21, repro,
2006-11-23,0.38, 0.78, 1.62, 2.04, 1.68, 7.44, repro,
2006-11-24,0.16, 0.17, -6.29, 2.11, 1.70, 7.57, repro,
2006-11-25,-0.33, 0.76, -0.48, 2.04, 1.64, 7.23, repro,
2006-11-26,-0.95, 0.30, -2.14, 2.03, 1.63, 7.20, repro,
2006-11-27,-0.17, 1.36, -3.03, 2.05, 1.65, 7.28, repro,
2006-11-28,1.01, 0.24, 1.60, 2.00, 1.64, 7.24, repro,
2006-11-29,-1.02, 1.43, -2.56, 2.01, 1.64, 7.22, repro,
2006-11-30,-0.72, 0.61, -8.58, 2.06, 1.70, 7.39, repro,
2006-12-01,-1.55, 0.69, -5.59, 2.01, 1.62, 7.14, repro,
2006-12-02,-0.87, -0.29, -9.76, 2.01, 1.63, 7.20, repro,
2006-12-03,-0.64, 1.23, -13.59, 2.01, 1.65, 7.26, repro,
2006-12-04,0.08, 0.27, -17.36, 2.06, 1.65, 7.35, repro,
2006-12-05,-0.68, 0.48, -10.07, 2.09, 1.76, 7.53, repro,
2006-12-06,0.16, -0.18, -8.94, 2.09, 1.77, 7.59, repro,
2006-12-07,-0.18, 0.62, -8.43, 2.04, 1.69, 7.33, repro,
2006-12-08,-0.35, 1.12, -4.39, 2.04, 1.70, 7.38, repro,
2006-12-09,-1.09, 0.68, -8.27, 2.14, 1.78, 7.60, repro,
2006-12-10,-1.74, 0.47, 1.88, 2.15, 1.72, 7.53, repro,
2006-12-11,-0.34, 0.16, -2.56, 2.01, 1.64, 7.19, repro,
2006-12-12,-0.73, -0.58, -1.32, 2.08, 1.69, 7.39, repro,
2006-12-13,-0.27, 0.35, -5.30, 2.03, 1.69, 7.37, repro,
2006-12-14,-0.28, 0.84, -0.67, 2.01, 1.66, 7.30, repro,
2006-12-15,-0.21, 0.08, -3.23, 2.14, 1.81, 7.85, repro,
2006-12-16,1.19, -0.20, -0.91, 2.11, 1.77, 7.55, repro,
2006-12-17,-0.29, 0.53, -2.50, 2.30, 1.93, 8.48, repro,
2006-12-18,0.23, 0.19, -6.32, 2.35, 1.93, 8.74, repro,
2006-12-19,0.36, 0.92, -7.25, 2.20, 1.87, 8.22, repro,
2006-12-20,-0.29, 0.40, -4.74, 2.20, 1.84, 7.98, repro,
2006-12-21,0.87, 0.24, -8.52, 2.03, 1.75, 7.43, repro,
2006-12-22,0.43, 0.24, -9.22, 2.38, 2.04, 8.70, repro,
2006-12-23,-0.40, 0.75, -12.05, 2.13, 1.81, 7.88, repro,
2006-12-24,-0.79, 1.54, -7.20, 2.01, 1.65, 7.27, repro,
2006-12-25,-0.58, 0.67, -13.46, 2.08, 1.77, 7.56, repro,
2006-12-26,0.68, 0.10, -8.38, 2.21, 1.83, 8.15, repro,
2006-12-27,0.00, 0.34, -4.52, 2.07, 1.73, 7.59, repro,
2006-12-28,2.69, 0.14, -5.92, 2.50, 2.16, 9.50, repro,
2006-12-29,0.66, 0.49, -13.16, 2.24, 1.92, 8.33, repro,
2006-12-30,0.14, 0.08, -7.36, 2.25, 1.91, 8.37, repro,
2006-12-31,-0.25, 0.53, -8.40, 2.31, 1.93, 8.72, repro,
2007-01-01,0.39, 0.30, -7.19, 2.29, 1.95, 8.58, repro,
2007-01-02,0.06, 0.08, -7.42, 2.35, 2.00, 8.79, repro,
2007-01-03,-0.95, 1.24, 0.76, 2.07, 1.77, 7.60, repro,
2007-01-04,0.09, 2.65, -2.14, 2.01, 1.72, 7.39, repro,
2007-01-05,1.06, 0.35, -2.27, 2.07, 1.77, 7.52, repro,
2007-01-06,-1.09, 0.75, -10.35, 2.04, 1.72, 7.44, repro,
2007-01-07,0.54, 0.33, -19.33, 2.06, 1.68, 7.39, repro,
2007-01-08,0.15, 0.54, -15.27, 2.09, 1.71, 7.46, repro,
2007-01-09,-0.47, 0.63, -12.65, 2.04, 1.66, 7.20, repro,
2007-01-10,-0.85, 1.06, -7.29, 2.03, 1.66, 7.13, repro,
2007-01-11,-0.27, 0.48, -5.59, 2.09, 1.68, 7.34, repro,
2007-01-12,0.90, 0.61, -7.92, 2.02, 1.62, 7.18, repro,
2007-01-13,0.23, 0.50, -10.03, 1.98, 1.61, 7.04, repro,
2007-01-14,-0.18, 0.48, -11.55, 1.96, 1.62, 7.03, repro,
2007-01-15,0.47, 0.42, -17.88, 1.97, 1.61, 7.01, repro,
2007-01-16,0.10, 0.57, -16.09, 2.01, 1.61, 7.03, repro,
2007-01-17,-0.30, 0.23, -11.61, 2.01, 1.66, 7.16, repro,
2007-01-18,0.44, 1.35, -18.77, 2.03, 1.66, 7.23, repro,
2007-01-19,-0.12, 0.49, -15.82, 2.03, 1.63, 7.25, repro,
2007-01-20,0.88, 0.57, -11.53, 2.03, 1.63, 7.21, repro,
2007-01-21,0.29, 1.73, -4.73, 1.97, 1.61, 6.99, repro,
2007-01-22,-0.02, 1.17, -13.45, 1.98, 1.60, 6.96, repro,
2007-01-23,0.45, 1.05, -17.46, 1.98, 1.61, 7.02, repro,
2007-01-24,-0.27, 0.99, -16.54, 1.98, 1.60, 7.04, repro,
2007-01-25,0.49, 1.27, -19.00, 2.02, 1.63, 7.07, repro,
2007-01-26,-0.33, 0.40, -10.33, 1.97, 1.60, 6.97, repro,
2007-01-27,-0.10, 1.03, -9.68, 1.98, 1.60, 6.93, repro,
2007-01-28,0.00, 1.18, -11.28, 1.98, 1.60, 6.98, repro,
2007-01-29,-0.52, 1.46, -14.44, 1.96, 1.60, 6.93, repro,
2007-01-30,0.03, 1.15, -10.85, 1.95, 1.59, 6.89, repro,
2007-01-31,0.57, 0.49, -2.78, 2.00, 1.65, 7.11, repro,
2007-02-01,-0.28, 0.80, -5.77, 2.01, 1.65, 7.20, repro,
2007-02-02,-0.51, 0.82, -8.69, 2.02, 1.61, 7.12, repro,
2007-02-03,-0.23, 0.89, -12.93, 2.04, 1.62, 7.18, repro,
2007-02-04,-0.71, 1.51, -15.75, 1.96, 1.60, 6.91, repro,
2007-02-05,0.10, 1.50, -13.47, 1.97, 1.60, 6.94, repro,
2007-02-06,-0.66, 0.75, -16.15, 2.01, 1.61, 7.02, repro,
2007-02-07,0.14, 2.12, -10.90, 1.98, 1.61, 7.03, repro,
2007-02-08,0.39, 2.49, -13.93, 2.06, 1.67, 7.29, repro,
2007-02-09,-0.06, 2.17, -12.21, 2.00, 1.66, 7.11, repro,
2007-02-10,-0.75, 1.39, -8.78, 1.97, 1.59, 6.93, repro,
2007-02-11,-0.69, 2.33, -6.41, 1.98, 1.60, 6.95, repro,
2007-02-12,-0.05, 1.23, -12.18, 1.99, 1.61, 7.04, repro,
2007-02-13,-0.63, 1.24, -9.65, 1.99, 1.61, 7.05, repro,
2007-02-14,0.04, 0.70, -16.95, 1.96, 1.59, 6.91, repro,
2007-02-15,-1.64, 2.82, -8.04, 1.95, 1.58, 6.86, repro,
2007-02-16,2.96, -0.43, -3.54, 1.97, 1.59, 6.90, repro,
2007-02-17,0.16, 1.59, -12.35, 2.03, 1.65, 7.14, repro,
2007-02-18,-0.55, 1.08, -4.73, 2.03, 1.66, 7.27, repro,
2007-02-19,-3.16, 1.62, 0.59, 1.97, 1.58, 6.92, repro,
2007-02-20,-2.04, 0.83, -0.50, 1.98, 1.60, 6.98, repro,
2007-02-21,-0.14, 2.19, -3.60, 1.97, 1.59, 6.91, repro,
2007-02-22,-0.41, 2.13, -9.88, 1.99, 1.59, 6.99, repro,
2007-02-23,-0.24, 1.82, -0.83, 2.23, 1.76, 7.68, repro,
2007-02-24,-0.43, 0.68, -1.11, 1.98, 1.59, 7.00, repro,
2007-02-25,-0.60, 1.99, -2.06, 1.98, 1.59, 6.97, repro,
2007-02-26,-0.57, 2.68, 1.50, 2.00, 1.60, 7.03, repro,
2007-02-27,-0.31, 1.85, 2.61, 1.99, 1.60, 7.00, repro,
2007-02-28,-1.15, 1.05, 1.87, 2.00, 1.60, 7.05, repro,
2007-03-01,0.18, 0.29, -7.62, 2.03, 1.66, 7.22, repro,
2007-03-02,-0.22, 0.24, -6.96, 2.04, 1.66, 7.28, repro,
2007-03-03,0.55, 1.08, -12.55, 2.03, 1.63, 7.18, repro,
2007-03-04,-0.11, 1.90, -12.68, 2.04, 1.64, 7.21, repro,
2007-03-05,-0.42, 1.28, -12.52, 2.03, 1.64, 7.21, repro,
2007-03-06,0.49, 1.27, -10.12, 2.02, 1.63, 7.15, repro,
2007-03-07,-0.36, 1.36, -3.73, 2.00, 1.63, 7.14, repro,
2007-03-08,0.13, 0.72, -3.44, 2.02, 1.63, 7.18, repro,
2007-03-09,-0.07, 0.91, -4.55, 2.03, 1.63, 7.17, repro,
2007-03-10,-0.00, 1.60, -7.08, 2.08, 1.67, 7.38, repro,
2007-03-11,-0.47, 0.81, -11.05, 2.05, 1.68, 7.42, repro,
2007-03-12,0.06, 0.76, -13.26, 2.04, 1.66, 7.35, repro,
2007-03-13,-2.18, 1.12, -3.45, 1.97, 1.58, 6.96, repro,
2007-03-14,-1.23, 3.86, 0.09, 2.02, 1.63, 7.21, repro,
2007-03-15,0.13, 2.00, -4.28, 2.04, 1.62, 7.18, repro,
2007-03-16,0.26, 0.91, -8.31, 2.02, 1.60, 7.05, repro,
2007-03-17,0.05, 0.95, -5.18, 1.99, 1.59, 7.03, repro,
2007-03-18,-0.46, -0.03, -1.00, 2.02, 1.64, 7.27, repro,
2007-03-19,-0.22, 0.90, -2.05, 1.99, 1.59, 6.98, repro,
2007-03-20,-0.52, 1.36, 2.16, 2.07, 1.62, 7.15, repro,
2007-03-21,-0.73, 0.91, 0.95, 2.12, 1.65, 7.36, repro,
2007-03-22,-0.59, 1.06, -1.11, 2.02, 1.62, 7.21, repro,
2007-03-23,-0.68, 0.34, -5.67, 2.04, 1.63, 7.28, repro,
2007-03-24,-0.45, 0.16, 0.64, 2.01, 1.61, 7.15, repro,
2007-03-25,-1.28, 0.17, -0.17, 1.98, 1.58, 6.96, repro,
2007-03-26,-1.49, -0.88, -3.34, 2.02, 1.63, 7.19, repro,
2007-03-27,-0.27, 1.30, -4.56, 2.05, 1.58, 7.10, repro,
2007-03-28,-0.97, 0.23, 0.56, 2.12, 1.67, 7.51, repro,
2007-03-29,1.01, 0.22, -4.85, 2.02, 1.62, 7.24, repro,
2007-03-30,-0.11, 1.17, -8.24, 1.99, 1.57, 6.93, repro,
2007-03-31,0.36, 1.52, -0.17, 1.98, 1.57, 6.92, repro,
2007-04-01,-0.70, 2.16, -0.50, 2.01, 1.58, 7.00, repro,
2007-04-02,2.03, 0.63, -2.37, 2.02, 1.58, 7.05, repro,
2007-04-03,0.25, 0.31, -7.02, 2.08, 1.67, 7.51, repro,
2007-04-04,-0.62, 0.46, -10.18, 2.03, 1.61, 7.14, repro,
2007-04-05,0.38, 0.12, -7.60, 2.08, 1.66, 7.35, repro,
2007-04-06,-0.18, 0.92, -9.86, 2.11, 1.69, 7.46, repro,
2007-04-07,0.38, 0.57, -4.52, 2.05, 1.62, 7.15, repro,
2007-04-08,-0.70, 1.29, -0.94, 2.02, 1.59, 7.12, repro,
2007-04-09,0.56, 1.76, -0.76, 2.01, 1.57, 6.97, repro,
2007-04-10,-0.60, 2.50, 4.66, 2.05, 1.62, 7.15, repro,
2007-04-11,-0.00, 0.17, 3.89, 2.00, 1.57, 6.97, repro,
2007-04-12,0.19, 0.27, -0.87, 1.98, 1.57, 6.93, repro,
2007-04-13,0.33, 0.87, -9.47, 2.03, 1.59, 7.09, repro,
2007-04-14,-1.14, 0.85, -2.94, 2.06, 1.62, 7.23, repro,
2007-04-15,-0.44, 0.77, -2.46, 2.03, 1.60, 7.10, repro,
2007-04-16,1.03, 1.92, -2.18, 2.01, 1.58, 7.03, repro,
2007-04-17,-0.23, 0.33, -3.20, 1.99, 1.58, 7.01, repro,
2007-04-18,-1.25, 1.80, 2.90, 2.01, 1.58, 7.02, repro,
2007-04-19,-0.43, 0.57, 1.94, 2.04, 1.60, 7.13, repro,
2007-04-20,-0.26, 0.42, 2.03, 2.01, 1.58, 7.05, repro,
2007-04-21,0.23, 1.25, -3.11, 2.02, 1.59, 7.08, repro,
2007-04-22,0.12, 0.52, -1.86, 2.03, 1.62, 7.15, repro,
2007-04-23,0.65, 0.63, -8.23, 2.01, 1.60, 7.05, repro,
2007-04-24,2.01, 0.81, -12.33, 2.04, 1.62, 7.14, repro,
2007-04-25,0.42, 1.08, -4.16, 2.05, 1.61, 7.14, repro,
2007-04-26,1.36, 0.14, -3.01, 2.02, 1.58, 7.05, repro,
2007-04-27,1.10, 1.17, -2.95, 2.01, 1.58, 7.03, repro,
2007-04-28,-0.79, 1.52, -8.43, 2.00, 1.56, 6.96, repro,
2007-04-29,-1.33, 0.49, -5.87, 2.01, 1.58, 7.05, repro,
2007-04-30,0.17, 0.75, -6.58, 2.03, 1.57, 7.04, repro,
2007-05-01,-0.14, 0.25, -4.35, 2.03, 1.58, 7.08, repro,
2007-05-02,-0.46, 1.39, -7.28, 2.09, 1.59, 7.26, repro,
2007-05-03,-0.48, 1.18, -4.93, 2.13, 1.61, 7.34, repro,
2007-05-04,0.02, 0.29, -1.42, 2.00, 1.56, 6.96, repro,
2007-05-05,0.42, -0.09, -8.23, 2.06, 1.62, 7.18, repro,
2007-05-06,1.09, 0.57, -9.14, 2.08, 1.60, 7.16, repro,
2007-05-07,-0.02, 0.61, -12.18, 2.03, 1.57, 7.05, repro,
2007-05-08,-0.04, 0.35, -5.50, 2.02, 1.56, 7.04, repro,
2007-05-09,0.65, 0.90, -1.77, 2.03, 1.57, 7.03, repro,
2007-05-10,0.66, 0.37, -5.92, 2.14, 1.65, 7.47, repro,
2007-05-11,-1.02, -0.12, -8.95, 2.12, 1.63, 7.42, repro,
2007-05-12,-0.24, 1.54, -3.75, 2.02, 1.57, 7.01, repro,
2007-05-13,0.29, 0.41, -7.12, 2.13, 1.65, 7.35, repro,
2007-05-14,1.43, 1.15, -3.10, 2.05, 1.60, 7.12, repro,
2007-05-15,0.66, 0.75, -6.74, 2.06, 1.62, 7.17, repro,
2007-05-16,0.66, 0.88, -6.76, 2.03, 1.57, 7.02, repro,
2007-05-17,0.12, 0.46, -11.09, 2.04, 1.61, 7.11, repro,
2007-05-18,-0.75, 0.98, -10.53, 2.10, 1.65, 7.28, repro,
2007-05-19,-0.19, 0.84, -3.25, 2.07, 1.61, 7.12, repro,
2007-05-20,0.63, -0.07, -1.06, 2.08, 1.64, 7.22, repro,
2007-05-21,1.43, -0.19, -1.40, 2.04, 1.59, 7.05, repro,
2007-05-22,-0.10, 0.86, -4.86, 2.02, 1.57, 6.96, repro,
2007-05-23,0.78, 0.46, -7.17, 2.07, 1.60, 7.08, repro,
2007-05-24,0.03, 0.16, -5.32, 2.10, 1.64, 7.24, repro,
2007-05-25,-0.54, 0.42, -4.66, 2.06, 1.61, 7.09, repro,
2007-05-26,-0.03, 1.02, -4.04, 2.07, 1.63, 7.18, repro,
2007-05-27,0.50, 0.36, -1.30, 2.02, 1.58, 6.98, repro,
2007-05-28,-0.25, 1.47, 0.10, 2.05, 1.57, 6.99, repro,
2007-05-29,-1.05, -1.04, -0.58, 2.05, 1.58, 7.02, repro,
2007-05-30,-0.29, -0.12, -6.94, 2.08, 1.59, 7.06, repro,
2007-05-31,0.28, 0.55, -2.33, 2.08, 1.63, 7.18, repro,
2007-06-01,-0.13, 0.97, -3.79, 2.04, 1.59, 7.01, repro,
2007-06-02,0.09, 0.32, -3.74, 2.02, 1.58, 7.02, repro,
2007-06-03,-0.14, 0.74, -2.20, 2.03, 1.57, 7.00, repro,
2007-06-04,0.08, 0.72, -1.23, 2.02, 1.58, 7.00, repro,
2007-06-05,-1.55, 0.45, 2.17, 2.06, 1.59, 7.11, repro,
2007-06-06,-1.90, -0.03, 4.47, 2.02, 1.58, 7.01, repro,
2007-06-07,-1.12, -0.53, -3.70, 2.02, 1.57, 6.98, repro,
2007-06-08,0.04, 0.78, -5.32, 2.02, 1.58, 6.99, repro,
2007-06-09,-0.03, 1.30, -6.84, 2.04, 1.61, 7.10, repro,
2007-06-10,-0.98, 0.27, -6.48, 2.01, 1.57, 6.96, repro,
2007-06-11,0.32, 0.79, -6.87, 2.06, 1.68, 7.25, repro,
2007-06-12,-0.33, 0.03, -2.08, 2.06, 1.67, 7.24, repro,
2007-06-13,-0.40, 0.40, -5.50, 2.06, 1.63, 7.14, repro,
2007-06-14,0.16, 1.29, -12.60, 2.06, 1.63, 7.18, repro,
2007-06-15,-0.77, 1.24, -1.99, 2.01, 1.59, 7.03, repro,
2007-06-16,-1.55, 1.21, -4.24, 2.01, 1.59, 7.04, repro,
2007-06-17,-0.17, 1.35, -3.68, 2.03, 1.59, 7.07, repro,
2007-06-18,-0.91, 0.94, 1.21, 2.00, 1.58, 6.99, repro,
2007-06-19,-0.08, 1.36, -5.46, 2.02, 1.59, 7.03, repro,
2007-06-20,-0.48, 0.99, -12.61, 2.01, 1.58, 7.01, repro,
2007-06-21,-0.52, 2.08, -8.30, 2.02, 1.59, 7.06, repro,
2007-06-22,-0.46, 1.86, -11.47, 2.01, 1.58, 7.01, repro,
2007-06-23,-1.12, 1.38, -8.27, 2.02, 1.57, 7.00, repro,
2007-06-24,-1.02, 0.79, -6.82, 2.04, 1.61, 7.19, repro,
2007-06-25,0.02, 1.29, -8.04, 2.01, 1.58, 6.99, repro,
2007-06-26,-0.30, 1.10, -11.88, 2.02, 1.57, 6.98, repro,
2007-06-27,0.19, 1.42, -10.37, 2.03, 1.60, 7.09, repro,
2007-06-28,-0.52, 2.19, -10.46, 2.02, 1.58, 7.04, repro,
2007-06-29,-0.82, 0.97, -6.26, 2.02, 1.57, 7.02, repro,
2007-06-30,-0.31, 1.07, -1.92, 2.01, 1.58, 7.00, repro,
2007-07-01,0.11, 1.51, -3.61, 2.01, 1.58, 7.04, repro,
2007-07-02,0.28, 2.03, -1.27, 2.03, 1.59, 7.12, repro,
2007-07-03,-0.24, 1.95, -9.87, 2.01, 1.59, 7.08, repro,
2007-07-04,-1.36, 0.80, -6.65, 2.02, 1.57, 7.05, repro,
2007-07-05,0.11, -0.13, -9.83, 2.02, 1.59, 7.05, repro,
2007-07-06,-1.27, 1.47, -4.60, 2.01, 1.59, 7.03, repro,
2007-07-07,-1.18, 0.19, 0.58, 2.02, 1.59, 7.05, repro,
2007-07-08,-0.16, 1.59, -8.03, 2.07, 1.65, 7.35, repro,
2007-07-09,-0.57, 2.38, -3.41, 2.02, 1.60, 7.09, repro,
2007-07-10,-0.52, 1.32, -5.66, 2.05, 1.63, 7.23, repro,
2007-07-11,-0.45, 1.14, -4.99, 2.01, 1.58, 6.95, repro,
2007-07-12,-0.91, 1.49, -5.22, 2.06, 1.66, 7.23, repro,
2007-07-13,-0.06, 2.42, -13.53, 2.06, 1.67, 7.28, repro,
2007-07-14,-0.33, 2.50, -5.85, 2.05, 1.64, 7.20, repro,
2007-07-15,-0.63, 2.33, -1.25, 2.07, 1.66, 7.32, repro,
2007-07-16,0.85, 3.55, 1.64, 2.05, 1.65, 7.17, repro,
2007-07-17,-4.98, 1.35, -0.55, 2.02, 1.59, 7.03, repro,
2007-07-18,-2.27, 0.53, -4.80, 2.03, 1.59, 7.06, repro,
2007-07-19,-0.95, 1.95, -1.91, 2.02, 1.59, 7.05, repro,
2007-07-20,0.47, 2.37, -2.75, 2.06, 1.65, 7.19, repro,
2007-07-21,0.56, 1.58, -1.08, 2.05, 1.66, 7.24, repro,
2007-07-22,-0.93, 1.42, 1.33, 2.11, 1.71, 7.35, repro,
2007-07-23,-0.74, 0.86, -5.82, 2.08, 1.65, 7.24, repro,
2007-07-24,-0.40, 2.05, 2.25, 2.07, 1.65, 7.22, repro,
2007-07-25,0.09, 2.10, -2.39, 2.14, 1.76, 7.74, repro,
2007-07-26,0.85, 2.07, -6.55, 2.03, 1.61, 7.14, repro,
2007-07-27,1.76, 1.96, -6.39, 2.06, 1.68, 7.34, repro,
2007-07-28,1.03, 1.30, 1.20, 2.14, 1.77, 7.73, repro,
2007-07-29,0.23, 1.77, 1.77, 2.07, 1.68, 7.32, repro,
2007-07-30,-0.49, 2.59, 4.01, 2.07, 1.68, 7.31, repro,
2007-07-31,0.18, 1.24, 0.49, 2.05, 1.66, 7.23, repro,
2007-08-01,-0.67, 0.36, 5.90, 2.06, 1.66, 7.28, repro,
2007-08-02,0.83, 1.48, 1.83, 2.06, 1.67, 7.32, repro,
2007-08-03,0.65, 3.33, -0.66, 2.03, 1.59, 7.07, repro,
2007-08-04,-0.64, 2.08, 4.24, 2.02, 1.59, 7.03, repro,
2007-08-05,0.55, 1.66, 5.10, 2.03, 1.59, 7.05, repro,
2007-08-06,-0.88, 1.71, 7.42, 2.05, 1.64, 7.28, repro,
2007-08-07,0.00, 2.35, 2.87, 2.05, 1.63, 7.24, repro,
2007-08-08,0.15, 1.92, 0.99, 2.00, 1.58, 6.98, repro,
2007-08-09,-0.01, 0.03, 0.53, 2.02, 1.59, 7.03, repro,
2007-08-10,-0.58, 1.33, 5.42, 2.01, 1.59, 7.04, repro,
2007-08-11,0.55, 2.38, 3.55, 2.02, 1.59, 7.05, repro,
2007-08-12,0.58, 4.36, -5.80, 2.01, 1.60, 7.09, repro,
2007-08-13,-1.49, 2.85, -5.14, 2.00, 1.58, 6.94, repro,
2007-08-14,-0.68, 2.52, -1.37, 2.14, 1.68, 7.44, repro,
2007-08-15,-0.62, 2.42, -6.29, 2.20, 1.78, 7.78, repro,
2007-08-16,0.63, 1.38, 5.61, 2.10, 1.65, 7.40, repro,
2007-08-17,0.93, 2.84, -8.91, 2.16, 1.71, 7.62, repro,
2007-08-18,-0.15, 2.45, 2.98, 2.13, 1.68, 7.60, repro,
2007-08-19,0.79, 3.73, 1.62, 2.13, 1.68, 7.59, repro,
2007-08-20,0.18, 1.12, 0.59, 2.10, 1.64, 7.30, repro,
2007-08-21,-0.44, 1.39, -5.83, 2.11, 1.65, 7.39, repro,
2007-08-22,0.06, 1.43, 3.95, 2.12, 1.64, 7.38, repro,
2007-08-23,-0.46, 1.30, 10.23, 2.07, 1.59, 7.14, repro,
2007-08-24,0.53, 1.78, 5.51, 2.17, 1.68, 7.47, repro,
2007-08-25,-0.09, 1.36, -5.06, 2.13, 1.68, 7.41, repro,
2007-08-26,-1.73, 1.83, 7.16, 2.30, 1.91, 8.37, repro,
2007-08-27,0.56, 1.35, -4.61, 2.24, 1.76, 7.86, repro,
2007-08-28,-1.23, 2.14, 5.18, 2.15, 1.73, 7.65, repro,
2007-08-29,1.62, 0.27, -13.00, 2.37, 1.95, 8.48, repro,
2007-08-30,-0.19, 2.65, -8.58, 2.14, 1.69, 7.46, repro,
2007-08-31,-0.15, 1.88, -6.73, 2.13, 1.68, 7.40, repro,
2007-09-01,-0.36, 3.37, 2.10, 2.22, 1.80, 7.78, repro,
2007-09-02,1.07, 0.72, -3.58, 2.15, 1.71, 7.53, repro,
2007-09-03,0.53, 1.16, 3.56, 2.15, 1.73, 7.48, repro,
2007-09-04,-0.73, 1.60, 6.53, 2.29, 1.85, 7.98, repro,
2007-09-05,-0.22, -0.34, 8.54, 2.15, 1.72, 7.50, repro,
2007-09-06,0.05, 1.17, 2.13, 2.13, 1.67, 7.38, repro,
2007-09-07,0.50, 0.31, -0.47, 2.13, 1.69, 7.40, repro,
2007-09-08,-0.49, 0.90, 0.35, 2.24, 1.84, 7.99, repro,
2007-09-09,0.73, 0.25, -1.74, 2.20, 1.77, 7.72, repro,
2007-09-10,-0.29, 0.09, -6.18, 2.17, 1.70, 7.46, repro,
2007-09-11,0.44, 1.40, -1.60, 2.13, 1.66, 7.30, repro,
2007-09-12,0.56, 1.18, 3.50, 2.22, 1.77, 7.67, repro,
2007-09-13,0.60, 1.46, 1.70, 2.22, 1.68, 7.59, repro,
2007-09-14,0.10, 0.93, -1.63, 2.17, 1.72, 7.52, repro,
2007-09-15,0.14, 0.54, 3.05, 2.22, 1.69, 7.66, repro,
2007-09-16,0.70, 0.64, 0.38, 2.12, 1.66, 7.29, repro,
2007-09-17,1.44, 0.92, 1.72, 2.19, 1.75, 7.66, repro,
2007-09-18,-0.30, 0.08, -0.93, 2.09, 1.67, 7.33, repro,
2007-09-19,-1.00, 1.49, 0.06, 2.02, 1.60, 7.07, repro,
2007-09-20,0.85, -1.01, 5.47, 2.09, 1.64, 7.28, repro,
2007-09-21,1.81, 0.33, 0.28, 2.15, 1.68, 7.49, repro,
2007-09-22,2.49, -0.95, -1.74, 2.12, 1.63, 7.28, repro,
2007-09-23,-0.23, 0.35, 2.10, 2.16, 1.71, 7.63, repro,
2007-09-24,-0.70, 1.18, 2.58, 2.16, 1.65, 7.42, repro,
2007-09-25,-0.71, 1.03, -6.81, 2.10, 1.63, 7.29, repro,
2007-09-26,0.15, 0.60, 0.70, 2.09, 1.61, 7.21, repro,
2007-09-27,-0.58, 0.58, -0.62, 2.16, 1.69, 7.54, repro,
2007-09-28,-0.69, 2.61, 3.39, 2.05, 1.63, 7.13, repro,
2007-09-29,0.06, 1.19, 8.20, 2.11, 1.69, 7.42, repro,
2007-09-30,-1.22, -0.52, 0.66, 2.10, 1.69, 7.44, repro,
2007-10-01,0.43, 0.44, -2.26, 2.12, 1.69, 7.45, repro,
2007-10-02,0.28, 0.91, -0.36, 2.16, 1.75, 7.69, repro,
2007-10-03,1.03, 1.36, 7.27, 2.09, 1.66, 7.33, repro,
2007-10-04,-0.08, 1.26, 3.29, 2.09, 1.66, 7.35, repro,
2007-10-05,0.24, 0.83, 1.02, 2.15, 1.74, 7.69, repro,
2007-10-06,0.04, 0.88, 2.87, 2.11, 1.69, 7.42, repro,
2007-10-07,-0.58, 0.98, 0.68, 2.18, 1.72, 7.68, repro,
2007-10-08,-1.03, 0.07, -2.68, 2.42, 1.87, 8.75, repro,
2007-10-09,-1.75, 1.59, -1.24, 2.27, 1.83, 7.97, repro,
2007-10-10,-0.33, 0.82, -3.42, 2.30, 1.80, 8.04, repro,
2007-10-11,-0.32, 0.75, 0.82, 2.10, 1.69, 7.42, repro,
2007-10-12,-0.69, 0.69, 2.89, 2.11, 1.69, 7.46, repro,
2007-10-13,0.15, 0.44, 4.61, 2.07, 1.65, 7.29, repro,
2007-10-14,0.02, 1.19, 0.09, 2.05, 1.64, 7.19, repro,
2007-10-15,-0.26, 0.89, 2.37, 2.04, 1.64, 7.20, repro,
2007-10-16,-1.21, 1.10, 6.88, 2.04, 1.63, 7.20, repro,
2007-10-17,-1.12, 0.45, 3.37, 2.09, 1.69, 7.43, repro,
2007-10-18,-1.11, 1.80, 4.52, 2.10, 1.70, 7.45, repro,
2007-10-19,-0.72, -1.02, 5.80, 2.06, 1.65, 7.24, repro,
2007-10-20,-2.44, 0.69, 4.72, 2.08, 1.67, 7.38, repro,
2007-10-21,-0.41, 0.58, -6.90, 2.05, 1.63, 7.21, repro,
2007-10-22,-0.71, 0.81, -10.36, 2.05, 1.63, 7.17, repro,
2007-10-23,-1.08, 0.90, -11.02, 2.14, 1.73, 7.61, repro,
2007-10-24,-0.83, 1.45, -6.13, 2.15, 1.73, 7.58, repro,
2007-10-25,-0.90, 1.57, -2.56, 2.07, 1.64, 7.25, repro,
2007-10-26,-0.77, 1.38, -3.96, 2.07, 1.68, 7.38, repro,
2007-10-27,-0.61, 1.10, -6.84, 2.05, 1.63, 7.24, repro,
2007-10-28,0.51, 1.16, -7.99, 2.07, 1.63, 7.26, repro,
2007-10-29,-1.64, 1.13, -4.10, 2.06, 1.63, 7.24, repro,
2007-10-30,-0.23, 0.57, -0.86, 2.05, 1.63, 7.21, repro,
2007-10-31,-0.97, 1.21, -6.99, 2.05, 1.63, 7.20, repro,
2007-11-01,-1.17, 0.81, -3.79, 2.02, 1.60, 7.10, repro,
2007-11-02,0.57, 1.20, -4.69, 2.02, 1.60, 7.09, repro,
2007-11-03,-0.19, 0.97, -9.08, 2.08, 1.62, 7.21, repro,
2007-11-04,0.26, 1.35, -3.10, 2.04, 1.59, 7.09, repro,
2007-11-05,0.18, 1.62, -5.20, 2.02, 1.60, 7.04, repro,
2007-11-06,-1.42, 1.59, -8.27, 2.07, 1.70, 7.39, repro,
2007-11-07,-0.61, 1.30, -7.86, 2.02, 1.60, 7.04, repro,
2007-11-08,-0.02, 1.73, -3.68, 2.06, 1.63, 7.20, repro,
2007-11-09,0.18, 1.37, -6.39, 2.08, 1.63, 7.23, repro,
2007-11-10,0.13, 1.08, -3.42, 2.03, 1.59, 7.03, repro,
2007-11-11,-0.64, 0.84, -2.85, 2.00, 1.59, 6.98, repro,
2007-11-12,-0.17, 0.58, -5.95, 2.02, 1.60, 7.05, repro,
2007-11-13,-0.00, 0.38, 0.20, 2.04, 1.60, 7.08, repro,
2007-11-14,-0.56, 1.15, -6.73, 2.05, 1.61, 7.14, repro,
2007-11-15,0.01, 0.88, -5.41, 2.06, 1.61, 7.15, repro,
2007-11-16,-1.74, 0.91, -1.93, 2.03, 1.60, 7.04, repro,
2007-11-17,-1.73, 0.81, -0.42, 2.03, 1.61, 7.11, repro,
2007-11-18,0.03, 0.13, -2.74, 2.01, 1.60, 7.07, repro,
2007-11-19,-0.52, 0.70, -1.90, 2.03, 1.60, 7.11, repro,
2007-11-20,0.10, 1.17, 0.04, 2.12, 1.70, 7.37, repro,
2007-11-21,0.88, -0.65, -8.60, 2.08, 1.70, 7.33, repro,
2007-11-22,0.58, 0.18, -9.51, 2.07, 1.67, 7.24, repro,
2007-11-23,1.62, 0.88, -4.13, 2.12, 1.75, 7.46, repro,
2007-11-24,0.67, 0.81, -5.94, 2.14, 1.71, 7.38, repro,
2007-11-25,0.75, 0.76, -2.31, 2.13, 1.71, 7.41, repro,
2007-11-26,0.37, 0.91, -8.83, 2.21, 1.79, 7.83, repro,
2007-11-27,0.95, 0.64, -2.44, 2.10, 1.71, 7.33, repro,
2007-11-28,0.53, 1.48, -11.36, 2.10, 1.70, 7.30, repro,
2007-11-29,0.08, 1.90, -10.32, 2.14, 1.66, 7.39, repro,
2007-11-30,0.78, 0.84, -2.48, 2.16, 1.73, 7.46, repro,
2007-12-01,0.34, 0.89, 0.85, 2.23, 1.79, 7.85, repro,
2007-12-02,-0.06, 2.92, -5.17, 2.19, 1.78, 7.77, repro,
2007-12-03,0.52, 1.29, -10.25, 2.24, 1.78, 8.05, repro,
2007-12-04,-0.45, 1.33, -10.65, 2.30, 1.91, 8.26, repro,
2007-12-05,0.64, 3.10, -0.16, 2.25, 1.86, 8.21, repro,
2007-12-06,0.42, 1.41, -0.41, 2.36, 1.92, 8.38, repro,
2007-12-07,0.54, 1.31, -6.38, 2.36, 1.97, 8.46, repro,
2007-12-08,0.89, 1.03, -1.14, 2.31, 1.87, 8.15, repro,
2007-12-09,1.07, 0.30, -8.45, 2.49, 2.13, 8.92, repro,
2007-12-10,0.63, 0.29, -3.39, 2.19, 1.81, 7.76, repro,
2007-12-11,0.38, 0.12, -4.97, 2.21, 1.78, 7.81, repro,
2007-12-12,1.11, -0.53, -10.78, 2.23, 1.75, 7.79, repro,
2007-12-13,0.09, 0.64, -7.28, 2.18, 1.71, 7.46, repro,
2007-12-14,1.00, 0.40, -6.11, 2.11, 1.63, 7.30, repro,
2007-12-15,-0.15, 0.64, -3.03, 2.16, 1.70, 7.48, repro,